SL-16 DEB, 24299

Orbit data source: Space-Track

SL-16 DEB, 24299 is space debris in LEO originally from a launch on Wed, 04 Sep 1996 UTC launched from the Tyuratam Missile And Space Complex (TTMTR). Debris objects in space refer to the collection of defunct objects orbiting the Earth. Examples of debris include non-operational satellites, rocket bodies, and fragments generated from explosions, collisions, or faulty payload assembly.

Loading next visibility...
Identifier
24299, 1996-051C
Orbit
LEO
Last TLE update
14 hours ago
Origin
Manufacturer
Yuzhnoe
Mission
Spacecraft
Bus & Motor
SEP MOTOR COVER, Unknown motor
Mass
~0 kg wet, ~1 kg dry
Launch date (UTC)
1996-09-04 (29 years ago)
Launch vehicle
Unknown
Launch site
Tyuratam Missile And Space Complex (TTMTR)
Object type
Payload
Rocket body
Debris
Shape & HBR
Unknown
Radar Cross Section
Small (<0.1 m²)

Expand to show TLE details & history

TLE from 14 hours ago
0 SL-16 DEB
1 24299U 96051C   25129.25449735  .00000129  00000-0  15588-3 0  9997
2 24299  71.0348 149.7538 0191568 233.8382 124.4866 13.75736689439166
Epoch: 2025-05-09T06:06Z
Definitive object data (Epoch: 2025-05-09T06:06:28.571Z)
Latitude
-0.00007°
Longitude
-169.17854°
Altitude
1,063.023 km
Speed
7.28 km/s
True Right ascension
09h 59m 00s
True Declination
0° 00' 00"
Sunlit
Object was in daylight at TLE epoch
Visualization TLE readout
Latitude
71.10028°
Longitude
-83.37876°
Altitude
1,103.818 km
Speed
7.251 km/s
Apparent Right ascension
16h 22m 13s
Apparent Declination
22° 18' 58"
Sunlit
Object is in daylight
Visualization observer readout
Local Sidereal Time
04:41:59
Azimuth
5.159° NNE
Elevation
-27.597°
Doppler factor
1
Orbital elements
Apogee altitude
1,117.907 km
Perigee altitude
836.105 km
Semi-major axis
7,355.143 km
Eccentricity
0.0191568
Inclination
71.0348°
RAAN
149.7538°
Arg. of periapsis
233.8382°
True anomaly
126.27151°
Mean anomaly
124.4866°
Eccentric anomaly
125.38149°
Mean motion
3.44078 °/min
BSTAR
0.00015588
Orbital period
104.63 mins
Loading maneuver chart data...
Loading SW <> Apogee altitude chart data...
Loading historical data...
Loading historical data...
Loading historical data...
Loading historical data...
Loading historical data...
Loading historical data...
Loading historical data...

SL-16 DEB Visibility forecast

Observer location: undefined°, undefined°

Span
Click to sort rows by Start time (UTC) header in descending order
Start Az.
Max El. time (UTC)
Max El. Az.
Max El.
End time (UTC)
End Az.
10 mins2025-05-10 01:24:50.679Z149.026° SSE2025-05-10 01:29:50.679Z98.682° ESE23.714°2025-05-10 01:34:50.679Z49.742° ENE
12 mins2025-05-10 03:10:50.679Z221.442° SW2025-05-10 03:16:50.679Z312.341° NW40.181°2025-05-10 03:22:50.679Z14.978° NNE
4 mins2025-05-10 05:03:50.679Z307.102° NW2025-05-10 05:04:50.679Z315.949° NNW12.519°2025-05-10 05:07:50.679Z341.792° N
6 mins2025-05-10 10:36:50.679Z20.9° NNE2025-05-10 10:38:50.679Z41.349° NE16.381°2025-05-10 10:42:50.679Z82.12° E
11 mins2025-05-10 12:21:50.679Z337.371° NNW2025-05-10 12:27:50.679Z149.256° SSE44.515°2025-05-10 12:32:50.679Z157.86° S
4 mins2025-05-10 14:11:50.679Z281.369° WNW2025-05-10 14:13:50.679Z261.598° W12.515°2025-05-10 14:15:50.679Z242.329° WSW
|